Location: McNierney
(34.1937°N, 106.9061°W)
Time: 00:40:18
(UTC+00:00)

Cosmos 2026 Rocket - Pass Details

Date: 11 December 2025
Orbit: 939 x 999 km, 82.9° (Epoch: 19 January)

Event Time Altitude Azimuth Distance (km) Brightness Sun altitude
Rises 12:42:43 0° 202° (SSW) 3,584 6.9 -16.3°
Reaches altitude 10° 12:45:18 10° 209° (SSW) 2,643 6.2 -15.8°
Maximum altitude 12:51:01 44° 280° (W) 1,280 4.2 -14.7°
Drops below altitude 10° 12:56:48 10° 352° (N) 2,671 6.0 -13.5°
Sets 12:59:26 0° 359° (N) 3,627 6.8 -13.0°
